Location: Asheville, NC
(35.6000°N, 82.5500°W)
Time: 18:42:44
(UTC-05:00)

Vanguard 1 - Pass Details

Date: 15 February 2018
Orbit: 650 x 3833 km, 34.2° (Epoch: 16 February)

Event Time Altitude Azimuth Distance (km) Brightness Sun altitude
Rises 16:55:07 0° 246° (WSW) 5,440 15.9 13.8°
Reaches altitude 10° 16:59:27 10° 244° (WSW) 3,927 16.9 13.0°
Maximum altitude 17:08:27 61° 167° (SSE) 1,188 10.8 11.4°
Drops below altitude 10° 17:13:44 10° 87° (E) 2,362 11.5 10.4°
Sets 17:15:46 0° 83° (E) 3,141 12.1 10.0°
